Location: Melizzano
(41.1500°N, 14.5000°E)
Time: 06:10:32
(UTC+00:00)

SL-24 DEB - Pass Details

Date: 11 May 2021
Orbit: 667 x 697 km, 92.0° (Epoch: 20 June)

Event Time Altitude Azimuth Distance (km) Brightness Sun altitude
Exits shadow 21:05:36 84° 30° (NNE) 677 4.1 -25.2°
Drops below altitude 10° 21:10:06 10° 356° (N) 2,102 7.6 -25.6°
Sets 21:12:21 0° 356° (N) 3,022 8.6 -25.8°
